Vorticity
10 11 19 10 12 9 3 26 3 8 12 18 22 13 13 16 14 5 7 18 16 8
13 9 19 5 8 12 -1 17 4 12 39 16 4 17 14 15 14 14 10 17 8 15
3 22 16 3 10 13 20 14 6 5 15 29 7 4 13 1 17 24 11 11 9 18
15 15 4 10 2 9 14 20 17 7 14 30 26 13 5 2 15 13 23 9 18 20
6 8 12 7 8 16 8 3 7 17 17 26 22 7 -3 -1 22 11 12 27 -2 16
16 16 4 15 -6 17 19 11 11 15 18 15 21 27 20 1 5 13 10 19 7 30
7 20 -1 9 15 9 3 13 18 12 11 14 22 21 14 35 1 -16 32 -10 29 8
11 11 12 4 16 22 26 14 21 18 28 26 9 11 -1 31 12 -10 18 28 28 20
23 -2 18 14 29 14 14 14 14 20 28 25 8 38 26 1 19 3 4 45 67 -10
23 27 6 -2 21 26 16 4 18 2 18 15 32 22 47 39 16 -3 4 10 18 41
4 13 14 6 20 14 14 7 13 6 31 17 -4 37 14 35 29 25 22 33 36 3
15 4 7 6 16 11 18 12 22 11 23 14 32 18 -6 23 20 24 24 46 44 35
11 13 4 11 12 12 14 12 18 17 1 23 13 8 12 11 10 20 13 8 21 24
11 10 13 8 6 12 11 20 16 10 17 -4 12 -1 7 12 12 15 15 8 11 3
Height
3021 3019 3017 3016 3014 3013 3011 3010 3010 3008 3007 3007 3009 3013 3016 3021 3026 3031 3034 3039 3044 3050
3013 3010 3008 3007 3005 3003 3002 3000 2999 2999 2997 2997 3000 3003 3007 3010 3014 3018 3023 3029 3034 3040
3005 3002 3000 2998 2997 2995 2994 2991 2990 2989 2987 2986 2988 2993 2996 2999 3003 3006 3011 3017 3023 3029
2998 2995 2994 2991 2989 2987 2985 2983 2981 2980 2978 2975 2977 2981 2985 2989 2993 2996 3001 3007 3013 3019
2990 2988 2986 2984 2982 2979 2977 2975 2972 2970 2966 2964 2966 2969 2974 2979 2982 2987 2991 2997 3004 3009
2982 2981 2979 2977 2975 2971 2969 2967 2964 2961 2957 2956 2955 2958 2963 2969 2973 2978 2984 2989 2995 3001
2975 2973 2972 2970 2967 2964 2962 2959 2957 2954 2950 2949 2949 2949 2953 2958 2965 2972 2975 2980 2987 2992
2969 2966 2965 2963 2959 2955 2954 2953 2950 2947 2943 2942 2942 2944 2946 2953 2959 2965 2969 2977 2980 2986
2963 2962 2959 2956 2951 2949 2949 2948 2946 2943 2940 2938 2937 2939 2943 2949 2953 2959 2963 2967 2972 2978
2959 2957 2955 2953 2948 2946 2946 2945 2944 2941 2938 2937 2934 2934 2937 2942 2949 2955 2958 2962 2965 2970
2955 2954 2952 2950 2947 2945 2944 2943 2942 2941 2938 2937 2937 2936 2939 2941 2946 2952 2956 2956 2962 2968
2954 2953 2951 2949 2947 2945 2944 2943 2942 2941 2940 2939 2939 2942 2943 2945 2947 2949 2953 2956 2961 2968
2953 2951 2951 2950 2948 2946 2944 2943 2942 2942 2942 2941 2942 2945 2948 2950 2953 2955 2959 2962 2965 2970
2952 2951 2950 2949 2948 2946 2946 2945 2944 2944 2944 2944 2945 2947 2949 2952 2955 2958 2962 2965 2969 2974